Погода во Франтишкови Лазне

Чехия     50°07′19″N   12°20′54″E
темп.,
°C
ветер,
м/с
пор.,
м/с
влажн.,
%
обл.,
%
осадки,
мм/ч
давл.,
гПа
погр.,
м
7 марта, вс
вс701:00−3с11660 0.0 103021
04:00−3вюв00650 0.0 102821
07:00−3юз11620 0.0 102721
10:00+2зюз253724 0.0 1025597
13:00+6зсз232822 0.0 10231008
16:00+5зсз23366 0.0 1020968
19:00−1сз22653 0.0 102121
22:00−3ссз25944 0.0 1022151
8 марта, пн
пн801:00−4ссз24974 0.0 1022138
04:00−4сз129527 0.0 102190
07:00−3зсз129461 0.0 1022130
10:00+1ссз247493 0.0 1023674
13:00+3с226496 0.1 1023874
16:00+3с226397 0.2 1022889
19:00−2ссв129097 0.3 102342
22:00−2всв1295100 0.3 1023110
9 марта, вт
вт901:00−3в1380100 0.3 1022154
04:00−3в1176100 0.0 102122
07:00−3вюв0171100 0.0 102166
10:00+1ююз1161100 0.0 1021468
13:00+3зюз1263100 0.0 1020804
16:00+2з2487100 0.2 1019423
19:000зюз1299100 0.4 1020112
22:000ююз1398100 0.2 1021166
10 марта, ср
ср1001:00−1зюз129898 0.4 102195
04:000зюз2492100 0.1 1021379
07:00−1юз1295100 0.1 1022121
10:00+3з347481 0.1 1023759
13:00+4зюз347582 0.3 1023810
16:00+3зюз347857 0.1 1021707
19:00+1ю239179 0.1 1021103
22:00−1ю2395100 0.0 102071
11 марта, чт
чт1101:000ююз31290100 0.0 1018407
04:00+1ююз41392100 0.4 1015781
07:00+3юз51494100 2.3 1013751
10:00+5юз61591100 0.0 1011963
13:00+7юз61684100 0.1 10091138
16:00+7зюз71789100 0.6 10071255
19:00+5зсз71690100 4.0 10091166
22:00+4зюз51292100 0.8 1011675